Flag for Germany Weather past 2 weeks in Mörfelden-Walldorf, Hesse, Germany

Now
70 °F

Passing clouds.


Feels Like: 70 °F
Forecast: 46 / 62 °F
Wind: 6 mph from Northwest

Location: Frankfurt-M-Flughafen Airport

Current Time: Apr 26, 2015 at 6:30:15 PM

Latest Report: Apr 26, 2015 at 5:50 PM


Visibility: N/A

Pressure: 29.65 "Hg

Humidity: 40%

Dew point: 45 °F

Location of Mörfelden-WalldorfLocation

Historic Weather in Mörfelden-Walldorf — Graph

°F

Mörfelden-Walldorf temperature yesterday

Maximum temperature yesterday: 64 °F (at 1:50 PM)
Minimum temperature yesterday: 43 °F (at 3:20 AM)
Average temperature yesterday: 53 °F

Past Weeks' High & Low Weather Summary

 TemperatureHumidityPressure
High77 °F (Apr 15, 3:50 PM)100% (Apr 23, 5:50 AM)30.45 "Hg (Apr 23, 5:50 AM)
Low34 °F (Apr 23, 5:50 AM)20% (Apr 19, 5:20 PM)29.68 "Hg (Apr 26, 4:20 PM)
Average55 °F56%30.14 "Hg
* Reported Apr 11 5:20 PM — Apr 26 5:20 PM, Mörfelden-Walldorf, Weather by CustomWeather, © 2015

Note: Actual official high and low records may vary slightly from our data, if they occured in-between our weather recording intervals... More about our weather records

Advertising

Mörfelden-Walldorf weather history for previous 24 hours

 ConditionsComfort  
Time TempWeatherWind HumidityBarometerVisibility
5:20 PM
Sun, Apr 26
70 °FPassing clouds.9 mph43%29.68 "HgN/A
4:50 PM72 °FPassing clouds.10 mph41%29.68 "HgN/A
4:20 PM70 °FBroken clouds.10 mph43%29.68 "HgN/A
3:50 PM70 °FPartly sunny.12 mph43%29.71 "HgN/A
3:20 PM68 °FBroken clouds.14 mph43%29.71 "HgN/A
2:50 PM68 °FBroken clouds.13 mph49%29.71 "HgN/A
2:20 PM70 °FScattered showers. Broken clouds.10 mph43%29.74 "HgN/A
1:50 PM66 °FThundershowers. Broken clouds.12 mph56%29.74 "HgN/A
1:20 PM66 °FThunderstorms. Broken clouds.12 mph60%29.74 "HgN/A
12:50 PM64 °FScattered showers. Partly sunny.12 mph64%29.74 "HgN/A
12:20 PM64 °FScattered clouds.13 mph60%29.77 "HgN/A
11:50 AM63 °FScattered clouds.13 mph64%29.77 "HgN/A
11:20 AM64 °FPartly sunny.13 mph64%29.77 "HgN/A
10:50 AM63 °FPartly sunny.12 mph73%29.77 "HgN/A
10:20 AM61 °FPartly sunny.10 mph72%29.80 "HgN/A
9:50 AM61 °FBroken clouds.10 mph77%29.80 "HgN/A
9:20 AM59 °FBroken clouds.10 mph82%29.80 "HgN/A
8:50 AM57 °FBroken clouds.9 mph88%29.80 "HgN/A
8:20 AM55 °FBroken clouds.7 mph94%29.80 "HgN/A
7:50 AM55 °FBroken clouds.7 mph94%29.80 "Hg4 mi
7:20 AM54 °FBroken clouds.7 mph100%29.80 "Hg6 mi
6:50 AM54 °FPartly cloudy.7 mph100%29.80 "Hg4 mi
6:20 AM54 °FFog.7 mph100%29.80 "Hg3 mi
5:50 AM52 °FPassing clouds.5 mph100%29.80 "Hg4 mi
5:20 AM52 °FPassing clouds.3 mph100%29.80 "Hg5 mi
4:50 AM52 °FSprinkles. Partly cloudy.3 mph100%29.80 "Hg5 mi
4:20 AM52 °FLight rain. Passing clouds.5 mph100%29.80 "Hg6 mi
3:50 AM52 °FScattered showers. Partly cloudy.3 mph94%29.80 "HgN/A
3:20 AM52 °FFog.5 mph94%29.80 "Hg4 mi
2:50 AM52 °FPassing clouds.1 mph100%29.83 "Hg4 mi
2:20 AM50 °FFog.2 mph94%29.83 "Hg4 mi
1:50 AM52 °FFog.No wind94%29.83 "Hg5 mi
1:20 AM52 °FFog.2 mph100%29.83 "HgN/A
12:50 AM54 °FPartly cloudy.5 mph94%29.83 "HgN/A
12:20 AM54 °FPassing clouds.6 mph94%29.83 "HgN/A
11:50 PM
Sat, Apr 25
54 °FPassing clouds.7 mph94%29.83 "HgN/A
11:20 PM54 °FPassing clouds.7 mph94%29.83 "HgN/A
10:50 PM55 °FPassing clouds.8 mph94%29.83 "HgN/A
10:20 PM55 °FPassing clouds.8 mph94%29.83 "HgN/A
9:50 PM57 °FPassing clouds.9 mph88%29.83 "HgN/A
9:20 PM57 °FBroken clouds.7 mph88%29.83 "HgN/A
8:50 PM57 °FScattered showers. Partly sunny.7 mph88%29.80 "HgN/A
8:20 PM57 °FSprinkles. Broken clouds.9 mph82%29.80 "HgN/A
7:50 PM59 °FScattered showers. Broken clouds.10 mph77%29.80 "HgN/A
7:20 PM59 °FPartly sunny.10 mph77%29.80 "HgN/A
6:50 PM59 °FPartly sunny.9 mph77%29.80 "HgN/A
6:20 PM59 °FPartly sunny.10 mph77%29.80 "HgN/A
Weather by CustomWeather, © 2015

See weather overviewHow to use our weather pages